Time,TemperatureF,DewpointF,PressureIn,WindDirection,WindDirectionDegrees,WindSpeedMPH,WindSpeedGustMPH,Humidity,HourlyPrecipIn,Conditions,Clouds,dailyrainin,SoftwareType,DateUTC
2016-12-03 00:00:00,44.1,27.6,30.00,WSW,249,7.8,16.3,52,0.00,,---,0.00,VWS V15.00,2016-12-03 05:00:00,
2016-12-03 00:05:00,43.9,27.4,30.00,SW,221,0.0,13.8,52,0.00,,---,0.00,VWS V15.00,2016-12-03 05:05:00,
2016-12-03 00:10:00,43.9,27.4,30.00,West,276,9.1,14.4,52,0.00,,---,0.00,VWS V15.00,2016-12-03 05:10:00,
2016-12-03 00:15:00,43.7,27.7,30.00,West,265,10.3,12.2,53,0.00,,---,0.00,VWS V15.00,2016-12-03 05:15:00,
2016-12-03 00:20:00,43.7,27.7,30.00,SSW,210,5.0,15.7,53,0.00,,---,0.00,VWS V15.00,2016-12-03 05:20:00,
2016-12-03 00:25:00,43.7,27.7,30.00,West,266,9.7,11.6,53,0.00,,---,0.00,VWS V15.00,2016-12-03 05:25:00,
2016-12-03 00:30:00,43.7,27.7,30.00,West,275,6.6,9.7,53,0.00,,---,0.00,VWS V15.00,2016-12-03 05:30:00,
2016-12-03 00:35:00,43.5,27.5,30.00,NW,304,11.0,11.0,53,0.00,,---,0.00,VWS V15.00,2016-12-03 05:35:00,
2016-12-03 00:40:00,43.5,27.5,30.00,SSW,208,6.3,12.5,53,0.00,,---,0.00,VWS V15.00,2016-12-03 05:40:00,
2016-12-03 00:45:00,43.5,27.5,30.00,SW,218,6.3,11.6,53,0.00,,---,0.00,VWS V15.00,2016-12-03 05:45:00,
2016-12-03 00:50:00,43.5,27.5,30.00,WSW,250,0.0,13.2,53,0.00,,---,0.00,VWS V15.00,2016-12-03 05:50:00,
2016-12-03 00:55:00,43.3,27.8,30.00,WSW,243,5.6,8.5,54,0.00,,---,0.00,VWS V15.00,2016-12-03 05:55:00,
2016-12-03 01:00:00,43.3,27.8,30.00,WSW,247,5.6,16.3,54,0.00,,---,0.00,VWS V15.00,2016-12-03 06:00:00,
2016-12-03 01:05:00,43.3,27.8,30.00,West,263,6.6,10.3,54,0.00,,---,0.00,VWS V15.00,2016-12-03 06:05:00,
2016-12-03 01:10:00,43.3,27.8,30.00,West,279,11.0,11.0,54,0.00,,---,0.00,VWS V15.00,2016-12-03 06:10:00,
2016-12-03 01:15:00,43.3,27.8,30.00,SW,235,3.8,12.2,54,0.00,,---,0.00,VWS V15.00,2016-12-03 06:15:00,
2016-12-03 01:20:00,43.3,27.8,30.00,West,267,9.7,12.2,54,0.00,,---,0.00,VWS V15.00,2016-12-03 06:20:00,
2016-12-03 01:25:00,43.3,27.8,30.00,West,266,7.8,10.3,54,0.00,,---,0.00,VWS V15.00,2016-12-03 06:25:00,
2016-12-03 01:30:00,43.3,27.8,30.03,West,262,10.3,13.2,54,0.00,,---,0.00,VWS V15.00,2016-12-03 06:30:00,
2016-12-03 01:35:00,43.2,27.7,30.03,WSW,245,6.3,12.5,54,0.00,,---,0.00,VWS V15.00,2016-12-03 06:35:00,
2016-12-03 01:40:00,43.2,27.7,30.03,West,275,12.2,12.5,54,0.00,,---,0.00,VWS V15.00,2016-12-03 06:40:00,
2016-12-03 01:45:00,43.2,27.7,30.03,WSW,246,6.3,12.2,54,0.00,,---,0.00,VWS V15.00,2016-12-03 06:45:00,
2016-12-03 01:50:00,43.2,27.7,30.03,West,275,6.6,12.2,54,0.00,,---,0.00,VWS V15.00,2016-12-03 06:50:00,
2016-12-03 02:00:00,43.3,27.8,30.03,West,277,8.5,12.2,54,0.00,,---,0.00,VWS V15.00,2016-12-03 07:00:00,
2016-12-03 02:05:00,43.3,27.8,30.03,WSW,240,7.8,13.2,54,0.00,,---,0.00,VWS V15.00,2016-12-03 07:05:00,
2016-12-03 02:10:00,43.5,28.0,30.03,WNW,282,6.6,12.2,54,0.00,,---,0.00,VWS V15.00,2016-12-03 07:10:00,
2016-12-03 02:15:00,43.5,28.0,30.03,SW,226,6.3,13.8,54,0.00,,---,0.00,VWS V15.00,2016-12-03 07:15:00,
2016-12-03 02:20:00,43.7,28.2,30.03,WNW,290,5.6,14.4,54,0.00,,---,0.00,VWS V15.00,2016-12-03 07:20:00,
2016-12-03 02:25:00,43.7,28.2,30.03,SW,235,12.5,18.2,54,0.00,,---,0.00,VWS V15.00,2016-12-03 07:25:00,
2016-12-03 02:30:00,43.7,28.2,30.03,West,261,9.7,12.5,54,0.00,,---,0.00,VWS V15.00,2016-12-03 07:30:00,